Location: Canet
(43.3261°N, 5.3723°E)
Time: 19:34:24
(UTC+00:00)

USA 234 - Pass Details

Date: 24 January 2021
Orbit: 1100 x 1107 km, 123.0° (Epoch: 06 March)

Event Time Altitude Azimuth Distance (km) Brightness Sun altitude
Exits shadow 19:16:49 36° 19° (NNE) 1,685 4.0 -28.4°
Drops below altitude 10° 19:22:36 10° 317° (NW) 2,967 6.0 -29.5°
Sets 19:25:17 0° 309° (NW) 3,927 6.9 -29.9°
